Latest Weather Observations for Point Wilson

IDV60801

Issued at 5:05 am EDT Friday 31 October 2014 (issued every 30 minutes, with the page automatically refreshed every 10 minutes)

About weather observations | Map of weather stations | Latest weather observations for VIC | Other Formats
Station Details ID: 087166 Name: POINT WILSON Lat: -38.10 Lon: 144.54 Height: 18.0 m
Data from the previous 72 hours. | See also: Recent months at Point Wilson
Date/Time
EDT
Temp
°C
App
Temp
°C
Dew
Point
Rel
Hum
%
Delta-T
°C
Wind Press
QNH
hPa
Press
MSL
hPa
Rain
since 9 am
mm
Dir
 
Spd
km/h
Gust
km/h
Spd
kts
Gust
kts
31/05:00am - - - - - N 20 24 11 13 - - -
31/04:30am - - - - - N 19 20 10 11 - - -
31/04:00am - - - - - N 15 17 8 9 - - -
31/03:30am - - - - - N 15 17 8 9 - - -
31/03:00am - - - - - N 15 17 8 9 - - -
31/02:30am - - - - - NNW 11 13 6 7 - - -
31/02:00am - - - - - E 9 13 5 7 - - -
31/01:30am - - - - - E 4 9 2 5 - - -
31/01:00am - - - - - ENE 7 9 4 5 - - -
31/12:30am - - - - - ENE 7 9 4 5 - - -
31/12:00am - - - - - ESE 7 9 4 5 - - -
 
Date/Time
EDT
Temp
°C
App
Temp
°C
Dew
Point
Rel
Hum
%
Delta-T
°C
Wind Press
QNH
hPa
Press
MSL
hPa
Rain
since 9 am
mm
Dir
 
Spd
km/h
Gust
km/h
Spd
kts
Gust
kts
30/11:30pm - - - - - SE 9 13 5 7 - - -
30/11:00pm - - - - - S 13 17 7 9 - - -
30/10:30pm - - - - - SSE 15 17 8 9 - - -
30/10:00pm - - - - - SSE 17 20 9 11 - - -
30/09:30pm - - - - - SE 13 17 7 9 - - -
30/09:00pm - - - - - SE 15 20 8 11 - - -
30/08:30pm - - - - - SSE 17 22 9 12 - - -
30/08:00pm - - - - - SSE 24 28 13 15 - - -
30/07:30pm - - - - - S 24 28 13 15 - - -
30/07:00pm - - - - - S 24 28 13 15 - - -
30/06:30pm - - - - - S 24 28 13 15 - - -
30/06:00pm - - - - - S 28 32 15 17 - - -
30/05:30pm - - - - - SSE 26 28 14 15 - - -
30/05:00pm - - - - - S 24 28 13 15 - - -
30/04:30pm - - - - - S 22 26 12 14 - - -
30/04:00pm - - - - - SW 20 30 11 16 - - -
30/03:30pm - - - - - SW 22 24 12 13 - - -
30/03:00pm - - - - - SW 19 24 10 13 - - -
30/02:30pm - - - - - SW 19 22 10 12 - - -
30/02:00pm - - - - - SW 20 22 11 12 - - -
30/01:30pm - - - - - SW 17 20 9 11 - - -
30/01:00pm - - - - - SW 19 24 10 13 - - -
30/12:30pm - - - - - SW 20 26 11 14 - - -
30/12:00pm - - - - - WSW 19 24 10 13 - - -
30/11:30am - - - - - WSW 22 26 12 14 - - -
30/11:00am - - - - - WSW 20 28 11 15 - - -
30/10:30am - - - - - W 17 22 9 12 - - -
30/10:00am - - - - - W 17 22 9 12 - - -
30/09:30am - - - - - W 19 20 10 11 - - -
30/09:00am - - - - - W 17 22 9 12 - - -
30/08:30am - - - - - W 20 24 11 13 - - -
30/08:00am - - - - - W 22 28 12 15 - - -
30/07:30am - - - - - WNW 20 26 11 14 - - -
30/07:00am - - - - - WNW 19 24 10 13 - - -
30/06:30am - - - - - W 24 28 13 15 - - -
30/06:00am - - - - - WNW 19 22 10 12 - - -
30/05:30am - - - - - NW 19 20 10 11 - - -
30/05:00am - - - - - WNW 17 20 9 11 - - -
30/04:30am - - - - - WNW 15 19 8 10 - - -
30/04:00am - - - - - NW 17 19 9 10 - - -
30/03:30am - - - - - NW 17 19 9 10 - - -
30/03:00am - - - - - NW 15 19 8 10 - - -
30/02:30am - - - - - WNW 17 20 9 11 - - -
30/02:00am - - - - - NW 17 19 9 10 - - -
30/01:30am - - - - - NW 17 20 9 11 - - -
30/01:00am - - - - - W 24 28 13 15 - - -
30/12:30am - - - - - WNW 19 22 10 12 - - -
30/12:00am - - - - - NW 17 20 9 11 - - -
 
Date/Time
EDT
Temp
°C
App
Temp
°C
Dew
Point
Rel
Hum
%
Delta-T
°C
Wind Press
QNH
hPa
Press
MSL
hPa
Rain
since 9 am
mm
Dir
 
Spd
km/h
Gust
km/h
Spd
kts
Gust
kts
29/11:30pm - - - - - NW 15 19 8 10 - - -
29/11:00pm - - - - - NNW 11 15 6 8 - - -
29/10:30pm - - - - - SW 4 9 2 5 - - -
29/10:00pm - - - - - S 6 7 3 4 - - -
29/09:30pm - - - - - SE 9 13 5 7 - - -
29/09:00pm - - - - - SSE 15 19 8 10 - - -
29/08:30pm - - - - - SSE 19 22 10 12 - - -
29/08:00pm - - - - - S 22 28 12 15 - - -
29/07:30pm - - - - - S 26 30 14 16 - - -
29/07:00pm - - - - - SSE 28 33 15 18 - - -
29/06:30pm - - - - - SSE 28 33 15 18 - - -
29/06:00pm - - - - - S 30 33 16 18 - - -
29/05:30pm - - - - - SE 26 30 14 16 - - -
29/05:00pm - - - - - SE 7 13 4 7 - - -
29/04:30pm - - - - - SSE 7 11 4 6 - - -
29/04:00pm - - - - - SSW 15 19 8 10 - - -
29/03:30pm - - - - - SSW 19 20 10 11 - - -
29/03:00pm - - - - - WSW 15 20 8 11 - - -
29/02:30pm - - - - - W 17 28 9 15 - - -
29/02:00pm - - - - - WSW 17 19 9 10 - - -
29/01:30pm - - - - - WSW 11 19 6 10 - - -
29/01:00pm - - - - - WNW 17 24 9 13 - - -
29/12:30pm - - - - - WSW 17 22 9 12 - - -
29/12:00pm - - - - - W 19 30 10 16 - - -
29/11:30am - - - - - W 17 20 9 11 - - -
29/11:00am - - - - - WNW 22 28 12 15 - - -
29/10:30am - - - - - W 24 28 13 15 - - -
29/10:00am - - - - - W 17 20 9 11 - - -
29/09:30am - - - - - W 19 24 10 13 - - -
29/09:00am - - - - - WNW 19 22 10 12 - - -
29/08:30am - - - - - WNW 15 19 8 10 - - -
29/08:00am - - - - - WNW 11 15 6 8 - - -
29/07:30am - - - - - WNW 11 13 6 7 - - -
29/07:00am - - - - - NW 15 19 8 10 - - -
29/06:30am - - - - - NW 19 22 10 12 - - -
29/06:00am - - - - - NW 19 22 10 12 - - -
29/05:30am - - - - - WNW 19 22 10 12 - - -
29/05:00am - - - - - WNW 19 22 10 12 - - -
29/04:30am - - - - - WNW 22 28 12 15 - - -
29/04:00am - - - - - NW 20 22 11 12 - - -
29/03:30am - - - - - NW 20 22 11 12 - - -
29/03:00am - - - - - W 26 30 14 16 - - -
29/02:30am - - - - - W 26 30 14 16 - - -
29/02:00am - - - - - W 22 28 12 15 - - -
29/01:30am - - - - - WSW 28 35 15 19 - - -
29/01:00am - - - - - W 26 32 14 17 - - -
29/12:30am - - - - - WSW 26 33 14 18 - - -
29/12:00am - - - - - WSW 30 35 16 19 - - -
 
Date/Time
EDT
Temp
°C
App
Temp
°C
Dew
Point
Rel
Hum
%
Delta-T
°C
Wind Press
QNH
hPa
Press
MSL
hPa
Rain
since 9 am
mm
Dir
 
Spd
km/h
Gust
km/h
Spd
kts
Gust
kts
28/11:30pm - - - - - WSW 26 32 14 17 - - -
28/11:00pm - - - - - WSW 24 28 13 15 - - -
28/10:30pm - - - - - WSW 22 28 12 15 - - -
28/10:00pm - - - - - WSW 26 30 14 16 - - -
28/09:30pm - - - - - WSW 32 39 17 21 - - -
28/09:00pm - - - - - WSW 32 39 17 21 - - -
28/08:30pm - - - - - SW 35 39 19 21 - - -
28/08:00pm - - - - - WSW 41 48 22 26 - - -
28/07:30pm - - - - - WSW 35 44 19 24 - - -
28/07:00pm - - - - - WSW 35 48 19 26 - - -
28/06:30pm - - - - - WSW 37 50 20 27 - - -
28/06:11pm - - - - - WSW 33 52 18 28 - - -
28/06:00pm - - - - - WSW 37 50 20 27 - - -
28/05:30pm - - - - - WSW 35 46 19 25 - - -
28/05:00pm - - - - - WSW 37 46 20 25 - - -
28/04:30pm - - - - - WSW 39 50 21 27 - - -
28/04:00pm - - - - - WSW 43 50 23 27 - - -
28/03:30pm - - - - - WSW 44 61 24 33 - - -
28/03:05pm - - - - - WSW 46 67 25 36 - - -
28/03:00pm - - - - - WSW 43 59 23 32 - - -
28/02:53pm - - - - - WSW 41 59 22 32 - - -
28/02:30pm - - - - - WSW 43 54 23 29 - - -
28/02:00pm - - - - - W 52 65 28 35 - - -
28/01:30pm - - - - - WSW 46 70 25 38 - - -
28/01:11pm - - - - - W 48 69 26 37 - - -
28/01:00pm - - - - - WSW 48 63 26 34 - - -
28/12:49pm - - - - - W 48 57 26 31 - - -
28/12:30pm - - - - - WSW 37 46 20 25 - - -
28/12:17pm - - - - - WSW 46 56 25 30 - - -
28/12:00pm - - - - - W 43 52 23 28 - - -
28/11:30am - - - - - W 50 67 27 36 - - -
28/11:04am - - - - - W 48 67 26 36 - - -
28/11:00am - - - - - W 50 67 27 36 - - -
28/10:30am - - - - - W 50 65 27 35 - - -
28/10:15am - - - - - W 50 69 27 37 - - -
28/10:00am - - - - - W 43 52 23 28 - - -
28/09:30am - - - - - W 52 70 28 38 - - -
28/09:00am - - - - - WNW 46 67 25 36 - - -
28/08:54am - - - - - WNW 50 69 27 37 - - -
28/08:30am - - - - - WNW 46 57 25 31 - - -
28/08:00am - - - - - WNW 52 70 28 38 - - -
28/07:55am - - - - - WNW 52 70 28 38 - - -
28/07:30am - - - - - WNW 44 56 24 30 - - -
28/07:00am - - - - - WNW 41 50 22 27 - - -
28/06:30am - - - - - WNW 46 54 25 29 - - -
28/06:16am - - - - - WNW 48 67 26 36 - - -
28/06:00am - - - - - WNW 44 54 24 29 - - -
28/05:30am - - - - - WNW 48 65 26 35 - - -
28/05:25am - - - - - WNW 44 65 24 35 - - -

Other Formats:

Comma delimited format used in spreadsheet applications
http://www.bom.gov.au/fwo/IDV60801/IDV60801.94847.axf

JavaScript Object Notation format (JSON) in row-major order
http://www.bom.gov.au/fwo/IDV60801/IDV60801.94847.json